owner,sensor,date,latitude,longitude,vertical_datum,wind_speed,wind_to_direction,wind_speed_of_gust,qcFlag 
SCCF RECON,ioos:station:SCCF:53:1,2017-03-01T00:00:00Z,26.6493,-81.8810,2.11,2.1,229.4,-9999.0,'1111122,1111122,1111122' 
SCCF RECON,ioos:station:SCCF:53:1,2017-03-01T00:15:00Z,26.6493,-81.8810,2.11,2.5,228.1,-9999.0,'1111122,1111122,1111122' 
SCCF RECON,ioos:station:SCCF:53:1,2017-03-01T00:30:00Z,26.6493,-81.8810,2.11,2.0,235.3,-9999.0,'1111122,1111122,1111122' 
SCCF RECON,ioos:station:SCCF:53:1,2017-03-01T00:45:00Z,26.6493,-81.8810,2.11,0.8,260.8,-9999.0,'1111122,1111122,1111122' 
SCCF RECON,ioos:station:SCCF:53:1,2017-03-01T01:00:00Z,26.6493,-81.8810,2.11,1.4,229.8,-9999.0,'1111122,1111122,1111122' 
SCCF RECON,ioos:station:SCCF:53:1,2017-03-01T01:15:00Z,26.6493,-81.8810,2.11,1.2,220.3,-9999.0,'1111122,1111122,1111122' 
SCCF RECON,ioos:station:SCCF:53:1,2017-03-01T01:30:00Z,26.6493,-81.8810,2.11,0.4,273.0,-9999.0,'1111122,1111122,1111122' 
SCCF RECON,ioos:station:SCCF:53:1,2017-03-01T01:45:00Z,26.6493,-81.8810,2.11,0.3,320.6,-9999.0,'1111122,1111122,1111122' 
SCCF RECON,ioos:station:SCCF:53:1,2017-03-01T02:00:00Z,26.6493,-81.8810,2.11,0.3,321.6,-9999.0,'1111122,1111122,1111122' 
SCCF RECON,ioos:station:SCCF:53:1,2017-03-01T02:15:00Z,26.6493,-81.8810,2.11,0.3,19.5,-9999.0,'1111122,1111122,1111122' 
SCCF RECON,ioos:station:SCCF:53:1,2017-03-01T02:30:00Z,26.6493,-81.8810,2.11,0.8,61.7,-9999.0,'1111122,1111122,1111122' 
SCCF RECON,ioos:station:SCCF:53:1,2017-03-01T02:45:00Z,26.6493,-81.8810,2.11,1.9,100.6,-9999.0,'1111122,1111122,1111122' 
SCCF RECON,ioos:station:SCCF:53:1,2017-03-01T03:00:00Z,26.6493,-81.8810,2.11,3.0,142.2,-9999.0,'1111122,1111122,1111122' 
SCCF RECON,ioos:station:SCCF:53:1,2017-03-01T03:15:00Z,26.6493,-81.8810,2.11,1.6,138.9,-9999.0,'1111122,1111122,1111122' 
SCCF RECON,ioos:station:SCCF:53:1,2017-03-01T03:30:00Z,26.6493,-81.8810,2.11,1.3,141.0,-9999.0,'1111122,1111122,1111122' 
SCCF RECON,ioos:station:SCCF:53:1,2017-03-01T03:45:00Z,26.6493,-81.8810,2.11,1.4,111.4,-9999.0,'1111122,1111122,1111122' 
SCCF RECON,ioos:station:SCCF:53:1,2017-03-01T04:00:00Z,26.6493,-81.8810,2.11,2.9,96.0,-9999.0,'1111122,1111122,1111122' 
SCCF RECON,ioos:station:SCCF:53:1,2017-03-01T04:15:00Z,26.6493,-81.8810,2.11,2.9,94.9,-9999.0,'1111122,1111122,1111122' 
SCCF RECON,ioos:station:SCCF:53:1,2017-03-01T04:30:00Z,26.6493,-81.8810,2.11,2.6,121.5,-9999.0,'1111122,1111122,1111122' 
SCCF RECON,ioos:station:SCCF:53:1,2017-03-01T04:45:00Z,26.6493,-81.8810,2.11,2.8,129.5,-9999.0,'1111122,1111122,1111122' 
SCCF RECON,ioos:station:SCCF:53:1,2017-03-01T05:00:00Z,26.6493,-81.8810,2.11,2.8,100.1,-9999.0,'1111122,1111122,1111122' 
SCCF RECON,ioos:station:SCCF:53:1,2017-03-01T05:15:00Z,26.6493,-81.8810,2.11,3.5,114.3,-9999.0,'1111122,1111122,1111122' 
SCCF RECON,ioos:station:SCCF:53:1,2017-03-01T05:30:00Z,26.6493,-81.8810,2.11,2.7,140.4,-9999.0,'1111122,1111122,1111122' 
SCCF RECON,ioos:station:SCCF:53:1,2017-03-01T05:45:00Z,26.6493,-81.8810,2.11,2.5,116.6,-9999.0,'1111122,1111122,1111122' 
SCCF RECON,ioos:station:SCCF:53:1,2017-03-01T06:00:00Z,26.6493,-81.8810,2.11,2.4,130.6,-9999.0,'1111122,1111122,1111122' 
SCCF RECON,ioos:station:SCCF:53:1,2017-03-01T06:15:00Z,26.6493,-81.8810,2.11,2.4,107.2,-9999.0,'1111122,1111122,1111122' 
SCCF RECON,ioos:station:SCCF:53:1,2017-03-01T06:30:00Z,26.6493,-81.8810,2.11,2.8,114.2,-9999.0,'1111122,1111122,1111122' 
SCCF RECON,ioos:station:SCCF:53:1,2017-03-01T06:45:00Z,26.6493,-81.8810,2.11,2.1,125.0,-9999.0,'1111122,1111122,1111122' 
SCCF RECON,ioos:station:SCCF:53:1,2017-03-01T07:00:00Z,26.6493,-81.8810,2.11,2.6,111.7,-9999.0,'1111122,1111122,1111122' 
SCCF RECON,ioos:station:SCCF:53:1,2017-03-01T07:15:00Z,26.6493,-81.8810,2.11,2.0,125.6,-9999.0,'1111122,1111122,1111122' 
SCCF RECON,ioos:station:SCCF:53:1,2017-03-01T07:30:00Z,26.6493,-81.8810,2.11,2.6,109.4,-9999.0,'1111122,1111122,1111122' 
SCCF RECON,ioos:station:SCCF:53:1,2017-03-01T07:45:00Z,26.6493,-81.8810,2.11,2.1,97.4,-9999.0,'1111122,1111122,1111122' 
SCCF RECON,ioos:station:SCCF:53:1,2017-03-01T08:00:00Z,26.6493,-81.8810,2.11,2.7,125.7,-9999.0,'1111122,1111122,1111122' 
SCCF RECON,ioos:station:SCCF:53:1,2017-03-01T08:15:00Z,26.6493,-81.8810,2.11,1.4,90.4,-9999.0,'1111122,1111122,1111122' 
SCCF RECON,ioos:station:SCCF:53:1,2017-03-01T08:30:00Z,26.6493,-81.8810,2.11,1.7,115.1,-9999.0,'1111122,1111122,1111122' 
SCCF RECON,ioos:station:SCCF:53:1,2017-03-01T08:45:00Z,26.6493,-81.8810,2.11,3.1,97.9,-9999.0,'1111122,1111122,1111122' 
SCCF RECON,ioos:station:SCCF:53:1,2017-03-01T09:00:00Z,26.6493,-81.8810,2.11,2.8,88.7,-9999.0,'1111122,1111122,1111122' 
SCCF RECON,ioos:station:SCCF:53:1,2017-03-01T09:15:00Z,26.6493,-81.8810,2.11,1.7,86.1,-9999.0,'1111122,1111122,1111122' 
SCCF RECON,ioos:station:SCCF:53:1,2017-03-01T09:30:00Z,26.6493,-81.8810,2.11,2.8,64.2,-9999.0,'1111122,1111122,1111122' 
SCCF RECON,ioos:station:SCCF:53:1,2017-03-01T09:45:00Z,26.6493,-81.8810,2.11,2.4,111.5,-9999.0,'1111122,1111122,1111122' 
SCCF RECON,ioos:station:SCCF:53:1,2017-03-01T10:00:00Z,26.6493,-81.8810,2.11,2.5,106.3,-9999.0,'1111122,1111122,1111122' 
SCCF RECON,ioos:station:SCCF:53:1,2017-03-01T10:15:00Z,26.6493,-81.8810,2.11,2.7,97.8,-9999.0,'1111122,1111122,1111122' 
SCCF RECON,ioos:station:SCCF:53:1,2017-03-01T10:30:00Z,26.6493,-81.8810,2.11,2.1,101.1,-9999.0,'1111122,1111122,1111122' 
SCCF RECON,ioos:station:SCCF:53:1,2017-03-01T10:45:00Z,26.6493,-81.8810,2.11,2.8,77.6,-9999.0,'1111122,1111122,1111122' 
SCCF RECON,ioos:station:SCCF:53:1,2017-03-01T11:00:00Z,26.6493,-81.8810,2.11,1.9,80.1,-9999.0,'1111122,1111122,1111122' 
SCCF RECON,ioos:station:SCCF:53:1,2017-03-01T11:15:00Z,26.6493,-81.8810,2.11,1.8,63.7,-9999.0,'1111122,1111122,1111122' 
SCCF RECON,ioos:station:SCCF:53:1,2017-03-01T11:30:00Z,26.6493,-81.8810,2.11,1.4,86.0,-9999.0,'1111122,1111122,1111122' 
SCCF RECON,ioos:station:SCCF:53:1,2017-03-01T11:45:00Z,26.6493,-81.8810,2.11,1.2,109.1,-9999.0,'1111122,1111122,1111122' 
SCCF RECON,ioos:station:SCCF:53:1,2017-03-01T12:00:00Z,26.6493,-81.8810,2.11,1.5,94.0,-9999.0,'1111122,1111122,1111122' 
SCCF RECON,ioos:station:SCCF:53:1,2017-03-01T12:15:00Z,26.6493,-81.8810,2.11,2.0,85.4,-9999.0,'1111122,1111122,1111122' 
SCCF RECON,ioos:station:SCCF:53:1,2017-03-01T12:30:00Z,26.6493,-81.8810,2.11,2.3,92.8,-9999.0,'1111122,1111122,1111122' 
SCCF RECON,ioos:station:SCCF:53:1,2017-03-01T12:45:00Z,26.6493,-81.8810,2.11,2.1,84.0,-9999.0,'1111122,1111122,1111122' 
SCCF RECON,ioos:station:SCCF:53:1,2017-03-01T13:00:00Z,26.6493,-81.8810,2.11,1.8,93.4,-9999.0,'1111122,1111122,1111122' 
SCCF RECON,ioos:station:SCCF:53:1,2017-03-01T13:15:00Z,26.6493,-81.8810,2.11,0.8,105.7,-9999.0,'1111122,1111122,1111122' 
SCCF RECON,ioos:station:SCCF:53:1,2017-03-01T13:30:00Z,26.6493,-81.8810,2.11,2.6,111.1,-9999.0,'1111122,1111122,1111122' 
SCCF RECON,ioos:station:SCCF:53:1,2017-03-01T13:45:00Z,26.6493,-81.8810,2.11,2.2,90.9,-9999.0,'1111122,1111122,1111122' 
SCCF RECON,ioos:station:SCCF:53:1,2017-03-01T14:00:00Z,26.6493,-81.8810,2.11,3.4,106.5,-9999.0,'1111122,1111122,1111122' 
SCCF RECON,ioos:station:SCCF:53:1,2017-03-01T14:15:00Z,26.6493,-81.8810,2.11,4.3,136.2,-9999.0,'1111122,1111122,1111122' 
SCCF RECON,ioos:station:SCCF:53:1,2017-03-01T14:30:00Z,26.6493,-81.8810,2.11,2.5,85.3,-9999.0,'1111122,1111122,1111122' 
SCCF RECON,ioos:station:SCCF:53:1,2017-03-01T14:45:00Z,26.6493,-81.8810,2.11,3.4,147.6,-9999.0,'1111122,1111122,1111122' 
SCCF RECON,ioos:station:SCCF:53:1,2017-03-01T15:00:00Z,26.6493,-81.8810,2.11,5.6,128.8,-9999.0,'1111122,1111122,1111122' 
SCCF RECON,ioos:station:SCCF:53:1,2017-03-01T15:15:00Z,26.6493,-81.8810,2.11,3.8,115.9,-9999.0,'1111122,1111122,1111122' 
SCCF RECON,ioos:station:SCCF:53:1,2017-03-01T15:30:00Z,26.6493,-81.8810,2.11,4.5,130.1,-9999.0,'1111122,1111122,1111122' 
SCCF RECON,ioos:station:SCCF:53:1,2017-03-01T15:45:00Z,26.6493,-81.8810,2.11,6.9,165.1,-9999.0,'1111122,1111122,1111122' 
SCCF RECON,ioos:station:SCCF:53:1,2017-03-01T16:00:00Z,26.6493,-81.8810,2.11,5.5,162.1,-9999.0,'1111122,1111122,1111122' 
SCCF RECON,ioos:station:SCCF:53:1,2017-03-01T16:15:00Z,26.6493,-81.8810,2.11,3.1,139.6,-9999.0,'1111122,1111122,1111122' 
SCCF RECON,ioos:station:SCCF:53:1,2017-03-01T16:30:00Z,26.6493,-81.8810,2.11,3.3,151.4,-9999.0,'1111122,1111122,1111122' 
SCCF RECON,ioos:station:SCCF:53:1,2017-03-01T16:45:00Z,26.6493,-81.8810,2.11,3.2,93.0,-9999.0,'1111122,1111122,1111122' 
SCCF RECON,ioos:station:SCCF:53:1,2017-03-01T17:00:00Z,26.6493,-81.8810,2.11,1.7,141.8,-9999.0,'1111122,1111122,1111122' 
SCCF RECON,ioos:station:SCCF:53:1,2017-03-01T17:15:00Z,26.6493,-81.8810,2.11,1.5,168.3,-9999.0,'1111122,1111122,1111122' 
SCCF RECON,ioos:station:SCCF:53:1,2017-03-01T17:30:00Z,26.6493,-81.8810,2.11,1.0,172.9,-9999.0,'1111122,1111122,1111122' 
SCCF RECON,ioos:station:SCCF:53:1,2017-03-01T17:45:00Z,26.6493,-81.8810,2.11,2.7,192.5,-9999.0,'1111122,1111122,1111122' 
SCCF RECON,ioos:station:SCCF:53:1,2017-03-01T18:00:00Z,26.6493,-81.8810,2.11,0.9,112.3,-9999.0,'1111122,1111122,1111122' 
SCCF RECON,ioos:station:SCCF:53:1,2017-03-01T18:15:00Z,26.6493,-81.8810,2.11,1.5,11.8,-9999.0,'1111122,1111122,1111122' 
SCCF RECON,ioos:station:SCCF:53:1,2017-03-01T18:30:00Z,26.6493,-81.8810,2.11,1.8,300.2,-9999.0,'1111122,1111122,1111122' 
SCCF RECON,ioos:station:SCCF:53:1,2017-03-01T18:45:00Z,26.6493,-81.8810,2.11,1.7,281.2,-9999.0,'1111122,1111122,1111122' 
SCCF RECON,ioos:station:SCCF:53:1,2017-03-01T19:00:00Z,26.6493,-81.8810,2.11,2.0,275.0,-9999.0,'1111122,1111122,1111122' 
SCCF RECON,ioos:station:SCCF:53:1,2017-03-01T19:15:00Z,26.6493,-81.8810,2.11,2.6,278.1,-9999.0,'1111122,1111122,1111122' 
SCCF RECON,ioos:station:SCCF:53:1,2017-03-01T19:30:00Z,26.6493,-81.8810,2.11,2.8,271.4,-9999.0,'1111122,1111122,1111122' 
SCCF RECON,ioos:station:SCCF:53:1,2017-03-01T19:45:00Z,26.6493,-81.8810,2.11,3.3,222.5,-9999.0,'1111122,1111122,1111122' 
SCCF RECON,ioos:station:SCCF:53:1,2017-03-01T20:00:00Z,26.6493,-81.8810,2.11,3.6,213.1,-9999.0,'1111122,1111122,1111122' 
SCCF RECON,ioos:station:SCCF:53:1,2017-03-01T20:15:00Z,26.6493,-81.8810,2.11,4.0,222.3,-9999.0,'1111122,1111122,1111122' 
SCCF RECON,ioos:station:SCCF:53:1,2017-03-01T20:30:00Z,26.6493,-81.8810,2.11,4.8,206.2,-9999.0,'1111122,1111122,1111122' 
SCCF RECON,ioos:station:SCCF:53:1,2017-03-01T20:45:00Z,26.6493,-81.8810,2.11,6.4,206.5,-9999.0,'1111122,1111122,1111122' 
SCCF RECON,ioos:station:SCCF:53:1,2017-03-01T21:00:00Z,26.6493,-81.8810,2.11,7.2,205.5,-9999.0,'1111122,1111122,1111122' 
SCCF RECON,ioos:station:SCCF:53:1,2017-03-01T21:15:00Z,26.6493,-81.8810,2.11,6.1,210.9,-9999.0,'1111122,1111122,1111122' 
SCCF RECON,ioos:station:SCCF:53:1,2017-03-01T21:30:00Z,26.6493,-81.8810,2.11,6.3,216.6,-9999.0,'1111122,1111122,1111122' 
SCCF RECON,ioos:station:SCCF:53:1,2017-03-01T21:45:00Z,26.6493,-81.8810,2.11,7.3,170.2,-9999.0,'1111122,1111122,1111122' 
SCCF RECON,ioos:station:SCCF:53:1,2017-03-01T22:00:00Z,26.6493,-81.8810,2.11,3.5,189.1,-9999.0,'1111122,1111122,1111122' 
SCCF RECON,ioos:station:SCCF:53:1,2017-03-01T22:15:00Z,26.6493,-81.8810,2.11,4.3,188.4,-9999.0,'1111122,1111122,1111122' 
SCCF RECON,ioos:station:SCCF:53:1,2017-03-01T22:30:00Z,26.6493,-81.8810,2.11,2.7,173.7,-9999.0,'1111122,1111122,1111122' 
SCCF RECON,ioos:station:SCCF:53:1,2017-03-01T22:45:00Z,26.6493,-81.8810,2.11,3.6,211.9,-9999.0,'1111122,1111122,1111122' 
SCCF RECON,ioos:station:SCCF:53:1,2017-03-01T23:00:00Z,26.6493,-81.8810,2.11,3.0,228.2,-9999.0,'1111122,1111122,1111122' 
SCCF RECON,ioos:station:SCCF:53:1,2017-03-01T23:15:00Z,26.6493,-81.8810,2.11,5.5,212.0,-9999.0,'1111122,1111122,1111122' 
SCCF RECON,ioos:station:SCCF:53:1,2017-03-01T23:30:00Z,26.6493,-81.8810,2.11,5.5,214.8,-9999.0,'1111122,1111122,1111122' 
SCCF RECON,ioos:station:SCCF:53:1,2017-03-01T23:45:00Z,26.6493,-81.8810,2.11,5.1,220.9,-9999.0,'1111122,1111122,1111122' 
SCCF RECON,ioos:station:SCCF:53:1,2017-03-02T00:00:00Z,26.6493,-81.8810,2.11,5.1,217.7,-9999.0,'1111122,1111122,1111122' 
SCCF RECON,ioos:station:SCCF:53:1,2017-03-02T00:15:00Z,26.6493,-81.8810,2.11,3.9,219.1,-9999.0,'1111122,1111122,1111122' 
SCCF RECON,ioos:station:SCCF:53:1,2017-03-02T00:30:00Z,26.6493,-81.8810,2.11,5.0,205.0,-9999.0,'1111122,1111122,1111122' 
SCCF RECON,ioos:station:SCCF:53:1,2017-03-02T00:45:00Z,26.6493,-81.8810,2.11,5.4,213.4,-9999.0,'1111122,1111122,1111122' 
SCCF RECON,ioos:station:SCCF:53:1,2017-03-02T01:00:00Z,26.6493,-81.8810,2.11,5.2,209.3,-9999.0,'1111122,1111122,1111122' 
SCCF RECON,ioos:station:SCCF:53:1,2017-03-02T01:15:00Z,26.6493,-81.8810,2.11,5.0,207.5,-9999.0,'1111122,1111122,1111122' 
SCCF RECON,ioos:station:SCCF:53:1,2017-03-02T01:30:00Z,26.6493,-81.8810,2.11,2.9,185.9,-9999.0,'1111122,1111122,1111122' 
SCCF RECON,ioos:station:SCCF:53:1,2017-03-02T01:45:00Z,26.6493,-81.8810,2.11,3.2,203.8,-9999.0,'1111122,1111122,1111122' 
SCCF RECON,ioos:station:SCCF:53:1,2017-03-02T02:00:00Z,26.6493,-81.8810,2.11,2.6,222.1,-9999.0,'1111122,1111122,1111122' 
SCCF RECON,ioos:station:SCCF:53:1,2017-03-02T02:15:00Z,26.6493,-81.8810,2.11,1.2,255.5,-9999.0,'1111122,1111122,1111122' 
SCCF RECON,ioos:station:SCCF:53:1,2017-03-02T02:30:00Z,26.6493,-81.8810,2.11,0.5,262.1,-9999.0,'1111122,1111122,1111122' 
SCCF RECON,ioos:station:SCCF:53:1,2017-03-02T02:45:00Z,26.6493,-81.8810,2.11,0.5,243.0,-9999.0,'1111122,1111122,1111122' 
SCCF RECON,ioos:station:SCCF:53:1,2017-03-02T03:00:00Z,26.6493,-81.8810,2.11,2.0,318.1,-9999.0,'1111122,1111122,1111122' 
SCCF RECON,ioos:station:SCCF:53:1,2017-03-02T03:15:00Z,26.6493,-81.8810,2.11,-9999.0,321.3,-9999.0,'1111122,1111122,1111122' 
SCCF RECON,ioos:station:SCCF:53:1,2017-03-02T03:30:00Z,26.6493,-81.8810,2.11,1.2,141.5,-9999.0,'1111122,1111122,1111122' 
SCCF RECON,ioos:station:SCCF:53:1,2017-03-02T03:45:00Z,26.6493,-81.8810,2.11,0.8,137.6,-9999.0,'1111122,1111122,1111122' 
SCCF RECON,ioos:station:SCCF:53:1,2017-03-02T04:00:00Z,26.6493,-81.8810,2.11,1.7,143.2,-9999.0,'1111122,1111122,1111122' 
SCCF RECON,ioos:station:SCCF:53:1,2017-03-02T04:15:00Z,26.6493,-81.8810,2.11,1.1,132.2,-9999.0,'1111122,1111122,1111122' 
SCCF RECON,ioos:station:SCCF:53:1,2017-03-02T04:30:00Z,26.6493,-81.8810,2.11,0.4,177.9,-9999.0,'1111122,1111122,1111122' 
SCCF RECON,ioos:station:SCCF:53:1,2017-03-02T04:45:00Z,26.6493,-81.8810,2.11,0.6,221.5,-9999.0,'1111122,1111122,1111122' 
SCCF RECON,ioos:station:SCCF:53:1,2017-03-02T05:00:00Z,26.6493,-81.8810,2.11,0.4,260.0,-9999.0,'1111122,1111122,1111122' 
SCCF RECON,ioos:station:SCCF:53:1,2017-03-02T05:15:00Z,26.6493,-81.8810,2.11,0.5,256.6,-9999.0,'1111122,1111122,1111122' 
SCCF RECON,ioos:station:SCCF:53:1,2017-03-02T05:30:00Z,26.6493,-81.8810,2.11,-9999.0,238.8,-9999.0,'1111122,1111122,1111122' 
SCCF RECON,ioos:station:SCCF:53:1,2017-03-02T05:45:00Z,26.6493,-81.8810,2.11,0.6,302.1,-9999.0,'1111122,1111122,1111122' 
SCCF RECON,ioos:station:SCCF:53:1,2017-03-02T06:00:00Z,26.6493,-81.8810,2.11,0.5,162.0,-9999.0,'1111122,1111122,1111122' 
SCCF RECON,ioos:station:SCCF:53:1,2017-03-02T06:15:00Z,26.6493,-81.8810,2.11,1.0,131.6,-9999.0,'1111122,1111122,1111122' 
SCCF RECON,ioos:station:SCCF:53:1,2017-03-02T06:30:00Z,26.6493,-81.8810,2.11,0.9,140.8,-9999.0,'1111122,1111122,1111122' 
SCCF RECON,ioos:station:SCCF:53:1,2017-03-02T06:45:00Z,26.6493,-81.8810,2.11,1.0,138.8,-9999.0,'1111122,1111122,1111122' 
SCCF RECON,ioos:station:SCCF:53:1,2017-03-02T07:00:00Z,26.6493,-81.8810,2.11,1.9,143.2,-9999.0,'1111122,1111122,1111122' 
SCCF RECON,ioos:station:SCCF:53:1,2017-03-02T07:15:00Z,26.6493,-81.8810,2.11,2.2,135.8,-9999.0,'1111122,1111122,1111122' 
SCCF RECON,ioos:station:SCCF:53:1,2017-03-02T07:30:00Z,26.6493,-81.8810,2.11,1.7,134.6,-9999.0,'1111122,1111122,1111122' 
SCCF RECON,ioos:station:SCCF:53:1,2017-03-02T07:45:00Z,26.6493,-81.8810,2.11,1.7,131.7,-9999.0,'1111122,1111122,1111122' 
SCCF RECON,ioos:station:SCCF:53:1,2017-03-02T08:00:00Z,26.6493,-81.8810,2.11,0.9,157.5,-9999.0,'1111122,1111122,1111122' 
SCCF RECON,ioos:station:SCCF:53:1,2017-03-02T08:15:00Z,26.6493,-81.8810,2.11,0.6,129.1,-9999.0,'1111122,1111122,1111122' 
SCCF RECON,ioos:station:SCCF:53:1,2017-03-02T08:30:00Z,26.6493,-81.8810,2.11,-9999.0,98.4,-9999.0,'1111122,1111122,1111122' 
SCCF RECON,ioos:station:SCCF:53:1,2017-03-02T08:45:00Z,26.6493,-81.8810,2.11,1.5,143.5,-9999.0,'1111122,1111122,1111122' 
SCCF RECON,ioos:station:SCCF:53:1,2017-03-02T09:00:00Z,26.6493,-81.8810,2.11,0.3,138.8,-9999.0,'1111122,1111122,1111122' 
SCCF RECON,ioos:station:SCCF:53:1,2017-03-02T09:15:00Z,26.6493,-81.8810,2.11,0.6,119.5,-9999.0,'1111122,1111122,1111122' 
SCCF RECON,ioos:station:SCCF:53:1,2017-03-02T09:30:00Z,26.6493,-81.8810,2.11,-9999.0,159.5,-9999.0,'1111122,1111122,1111122' 
SCCF RECON,ioos:station:SCCF:53:1,2017-03-02T09:45:00Z,26.6493,-81.8810,2.11,0.5,120.2,-9999.0,'1111122,1111122,1111122' 
SCCF RECON,ioos:station:SCCF:53:1,2017-03-02T10:00:00Z,26.6493,-81.8810,2.11,1.6,140.2,-9999.0,'1111122,1111122,1111122' 
SCCF RECON,ioos:station:SCCF:53:1,2017-03-02T10:15:00Z,26.6493,-81.8810,2.11,1.5,133.4,-9999.0,'1111122,1111122,1111122' 
SCCF RECON,ioos:station:SCCF:53:1,2017-03-02T10:30:00Z,26.6493,-81.8810,2.11,1.8,136.9,-9999.0,'1111122,1111122,1111122' 
SCCF RECON,ioos:station:SCCF:53:1,2017-03-02T10:45:00Z,26.6493,-81.8810,2.11,1.7,133.2,-9999.0,'1111122,1111122,1111122' 
SCCF RECON,ioos:station:SCCF:53:1,2017-03-02T11:00:00Z,26.6493,-81.8810,2.11,2.0,84.8,-9999.0,'1111122,1111122,1111122' 
SCCF RECON,ioos:station:SCCF:53:1,2017-03-02T11:15:00Z,26.6493,-81.8810,2.11,1.7,65.4,-9999.0,'1111122,1111122,1111122' 
SCCF RECON,ioos:station:SCCF:53:1,2017-03-02T11:30:00Z,26.6493,-81.8810,2.11,0.9,30.6,-9999.0,'1111122,1111122,1111122' 
SCCF RECON,ioos:station:SCCF:53:1,2017-03-02T11:45:00Z,26.6493,-81.8810,2.11,1.6,36.0,-9999.0,'1111122,1111122,1111122' 
SCCF RECON,ioos:station:SCCF:53:1,2017-03-02T12:00:00Z,26.6493,-81.8810,2.11,1.5,56.2,-9999.0,'1111122,1111122,1111122' 
SCCF RECON,ioos:station:SCCF:53:1,2017-03-02T12:15:00Z,26.6493,-81.8810,2.11,1.5,51.5,-9999.0,'1111122,1111122,1111122' 
SCCF RECON,ioos:station:SCCF:53:1,2017-03-02T12:30:00Z,26.6493,-81.8810,2.11,1.6,47.7,-9999.0,'1111122,1111122,1111122' 
SCCF RECON,ioos:station:SCCF:53:1,2017-03-02T12:45:00Z,26.6493,-81.8810,2.11,1.8,66.6,-9999.0,'1111122,1111122,1111122' 
SCCF RECON,ioos:station:SCCF:53:1,2017-03-02T13:00:00Z,26.6493,-81.8810,2.11,1.7,82.9,-9999.0,'1111122,1111122,1111122' 
SCCF RECON,ioos:station:SCCF:53:1,2017-03-02T13:15:00Z,26.6493,-81.8810,2.11,1.8,80.8,-9999.0,'1111122,1111122,1111122' 
SCCF RECON,ioos:station:SCCF:53:1,2017-03-02T13:30:00Z,26.6493,-81.8810,2.11,1.9,46.7,-9999.0,'1111122,1111122,1111122' 
SCCF RECON,ioos:station:SCCF:53:1,2017-03-02T13:45:00Z,26.6493,-81.8810,2.11,1.8,20.1,-9999.0,'1111122,1111122,1111122' 
SCCF RECON,ioos:station:SCCF:53:1,2017-03-02T14:00:00Z,26.6493,-81.8810,2.11,0.5,44.0,-9999.0,'1111122,1111122,1111122' 
SCCF RECON,ioos:station:SCCF:53:1,2017-03-02T14:15:00Z,26.6493,-81.8810,2.11,1.3,39.8,-9999.0,'1111122,1111122,1111122' 
SCCF RECON,ioos:station:SCCF:53:1,2017-03-02T14:30:00Z,26.6493,-81.8810,2.11,1.6,184.5,-9999.0,'1111122,1111122,1111122' 
SCCF RECON,ioos:station:SCCF:53:1,2017-03-02T14:45:00Z,26.6493,-81.8810,2.11,1.1,215.1,-9999.0,'1111122,1111122,1111122' 
SCCF RECON,ioos:station:SCCF:53:1,2017-03-02T15:00:00Z,26.6493,-81.8810,2.11,2.0,290.9,-9999.0,'1111122,1111122,1111122' 
SCCF RECON,ioos:station:SCCF:53:1,2017-03-02T15:15:00Z,26.6493,-81.8810,2.11,1.5,225.0,-9999.0,'1111122,1111122,1111122' 
SCCF RECON,ioos:station:SCCF:53:1,2017-03-02T15:30:00Z,26.6493,-81.8810,2.11,1.1,273.8,-9999.0,'1111122,1111122,1111122' 
SCCF RECON,ioos:station:SCCF:53:1,2017-03-02T15:45:00Z,26.6493,-81.8810,2.11,1.5,195.1,-9999.0,'1111122,1111122,1111122' 
SCCF RECON,ioos:station:SCCF:53:1,2017-03-02T16:00:00Z,26.6493,-81.8810,2.11,1.9,173.2,-9999.0,'1111122,1111122,1111122' 
SCCF RECON,ioos:station:SCCF:53:1,2017-03-02T16:15:00Z,26.6493,-81.8810,2.11,3.1,192.7,-9999.0,'1111122,1111122,1111122' 
SCCF RECON,ioos:station:SCCF:53:1,2017-03-02T16:30:00Z,26.6493,-81.8810,2.11,4.0,210.8,-9999.0,'1111122,1111122,1111122' 
SCCF RECON,ioos:station:SCCF:53:1,2017-03-02T16:45:00Z,26.6493,-81.8810,2.11,5.3,207.3,-9999.0,'1111122,1111122,1111122' 
SCCF RECON,ioos:station:SCCF:53:1,2017-03-02T17:00:00Z,26.6493,-81.8810,2.11,5.3,201.0,-9999.0,'1111122,1111122,1111122' 
SCCF RECON,ioos:station:SCCF:53:1,2017-03-02T17:15:00Z,26.6493,-81.8810,2.11,4.9,206.3,-9999.0,'1111122,1111122,1111122' 
SCCF RECON,ioos:station:SCCF:53:1,2017-03-02T17:30:00Z,26.6493,-81.8810,2.11,5.1,209.1,-9999.0,'1111122,1111122,1111122' 
SCCF RECON,ioos:station:SCCF:53:1,2017-03-02T17:45:00Z,26.6493,-81.8810,2.11,4.7,206.4,-9999.0,'1111122,1111122,1111122' 
SCCF RECON,ioos:station:SCCF:53:1,2017-03-02T18:00:00Z,26.6493,-81.8810,2.11,5.3,205.7,-9999.0,'1111122,1111122,1111122' 
SCCF RECON,ioos:station:SCCF:53:1,2017-03-02T18:15:00Z,26.6493,-81.8810,2.11,5.5,212.7,-9999.0,'1111122,1111122,1111122' 
SCCF RECON,ioos:station:SCCF:53:1,2017-03-02T18:30:00Z,26.6493,-81.8810,2.11,6.0,200.6,-9999.0,'1111122,1111122,1111122' 
SCCF RECON,ioos:station:SCCF:53:1,2017-03-02T18:45:00Z,26.6493,-81.8810,2.11,4.6,243.8,-9999.0,'1111122,1111122,1111122' 
SCCF RECON,ioos:station:SCCF:53:1,2017-03-02T19:00:00Z,26.6493,-81.8810,2.11,0.9,263.4,-9999.0,'1111122,1111122,1111122' 
SCCF RECON,ioos:station:SCCF:53:1,2017-03-02T19:15:00Z,26.6493,-81.8810,2.11,3.1,261.5,-9999.0,'1111122,1111122,1111122' 
SCCF RECON,ioos:station:SCCF:53:1,2017-03-02T19:30:00Z,26.6493,-81.8810,2.11,4.7,265.4,-9999.0,'1111122,1111122,1111122' 
SCCF RECON,ioos:station:SCCF:53:1,2017-03-02T19:45:00Z,26.6493,-81.8810,2.11,5.0,275.4,-9999.0,'1111122,1111122,1111122' 
SCCF RECON,ioos:station:SCCF:53:1,2017-03-02T20:00:00Z,26.6493,-81.8810,2.11,5.8,279.6,-9999.0,'1111122,1111122,1111122' 
SCCF RECON,ioos:station:SCCF:53:1,2017-03-02T20:15:00Z,26.6493,-81.8810,2.11,4.9,266.8,-9999.0,'1111122,1111122,1111122' 
SCCF RECON,ioos:station:SCCF:53:1,2017-03-02T20:30:00Z,26.6493,-81.8810,2.11,4.7,272.8,-9999.0,'1111122,1111122,1111122' 
SCCF RECON,ioos:station:SCCF:53:1,2017-03-02T20:45:00Z,26.6493,-81.8810,2.11,4.2,290.6,-9999.0,'1111122,1111122,1111122' 
SCCF RECON,ioos:station:SCCF:53:1,2017-03-02T21:00:00Z,26.6493,-81.8810,2.11,6.3,298.1,-9999.0,'1111122,1111122,1111122' 
SCCF RECON,ioos:station:SCCF:53:1,2017-03-02T21:15:00Z,26.6493,-81.8810,2.11,6.6,291.8,-9999.0,'1111122,1111122,1111122' 
SCCF RECON,ioos:station:SCCF:53:1,2017-03-02T21:30:00Z,26.6493,-81.8810,2.11,5.8,278.3,-9999.0,'1111122,1111122,1111122' 
SCCF RECON,ioos:station:SCCF:53:1,2017-03-02T21:45:00Z,26.6493,-81.8810,2.11,6.6,303.7,-9999.0,'1111122,1111122,1111122' 
SCCF RECON,ioos:station:SCCF:53:1,2017-03-02T22:00:00Z,26.6493,-81.8810,2.11,7.2,289.3,-9999.0,'1111122,1111122,1111122' 
SCCF RECON,ioos:station:SCCF:53:1,2017-03-02T22:15:00Z,26.6493,-81.8810,2.11,7.2,298.4,-9999.0,'1111122,1111122,1111122' 
SCCF RECON,ioos:station:SCCF:53:1,2017-03-02T22:30:00Z,26.6493,-81.8810,2.11,6.8,299.5,-9999.0,'1111122,1111122,1111122' 
SCCF RECON,ioos:station:SCCF:53:1,2017-03-02T22:45:00Z,26.6493,-81.8810,2.11,5.2,288.5,-9999.0,'1111122,1111122,1111122' 
SCCF RECON,ioos:station:SCCF:53:1,2017-03-02T23:00:00Z,26.6493,-81.8810,2.11,4.8,292.8,-9999.0,'1111122,1111122,1111122' 
SCCF RECON,ioos:station:SCCF:53:1,2017-03-02T23:15:00Z,26.6493,-81.8810,2.11,4.6,289.5,-9999.0,'1111122,1111122,1111122' 
SCCF RECON,ioos:station:SCCF:53:1,2017-03-02T23:30:00Z,26.6493,-81.8810,2.11,5.0,292.7,-9999.0,'1111122,1111122,1111122' 
SCCF RECON,ioos:station:SCCF:53:1,2017-03-02T23:45:00Z,26.6493,-81.8810,2.11,4.2,281.1,-9999.0,'1111122,1111122,1111122' 
SCCF RECON,ioos:station:SCCF:53:1,2017-03-03T00:00:00Z,26.6493,-81.8810,2.11,3.6,292.1,-9999.0,'1111122,1111122,1111122' 
SCCF RECON,ioos:station:SCCF:53:1,2017-03-03T00:15:00Z,26.6493,-81.8810,2.11,3.3,299.0,-9999.0,'1111122,1111122,1111122' 
SCCF RECON,ioos:station:SCCF:53:1,2017-03-03T00:30:00Z,26.6493,-81.8810,2.11,3.5,302.0,-9999.0,'1111122,1111122,1111122' 
SCCF RECON,ioos:station:SCCF:53:1,2017-03-03T00:45:00Z,26.6493,-81.8810,2.11,3.5,296.3,-9999.0,'1111122,1111122,1111122' 